User: anonymous   Login
Location: Unspecified
(0.0000°N, 0.0000°E)
Time: 07:52:42
(UTC+00:00)
Language:

STRAND 1 - Orbit

View from above orbital plane
View from above orbital plane
View from above satellite
View from above satellite

Ground track
Ground track

The orbit data is extracted from the following two-line orbital elements,

1 39090U 13009E   21260.36460315  .00000057  00000-0  34819-4 0  9994
2 39090  98.4218 100.3724 0009429  12.3919 347.7497 14.35183026448247
Epoch (UTC): 17 September 2021 08:45:01
Eccentricity: 0.0009429
inclination: 98.4218°
perigee height: 768 km
apogee height: 781 km
right ascension of ascending node: 100.3724°
argument of perigee: 12.3919°
revolutions per day: 14.35183026
mean anomaly at epoch: 347.7497°
orbit number at epoch: 44824

The dashed part of the orbit path shows where the satellite is in the earth's shadow,  

DLR